[[{"header":{"parameterUnit":"m.s-1","parameterCategory":1,"la1":30.2991,"la2":30.254,"lo1":-89.0895,"lo2":-89.0444,"dy":0.0017,"dx":0.0017,"nx":28,"ny":28,"refTime":"2024-05-12T09:00:00:Z","depth":0,"parameterNumber":2,"parameterNumberName":"U-component_of_WINDS"},"data":[0,0,0,0,0,0,0,0,0,0,0,0,0,0,0,0,0,0,0,0,0,0,0,0,0,0,0,0,0,0,0,0,0,0,0,0,0,0,0,0,0,0,0,0,0,0,0,0,0,0,0,0,0,0,0,0,0,0,-4.6001,-4.6002,0,-4.606,-4.6061,-4.6061,-4.5908,-4.5903,-4.5898,-4.5894,-4.5958,-4.5964,-4.597,0,0,0,0,0,0,0,0,0,0,0,0,0,-4.576,-4.5765,-4.6001,-4.6002,-4.6003,-4.606,-4.6061,-4.6061,-4.5909,-4.5903,-4.5897,-4.5891,-4.5956,-4.5963,-4.5971,0,0,0,0,0,0,0,0,0,0,0,0,0,-4.5846,-4.5766,-4.6001,-4.5933,-4.5928,-4.606,-4.6061,-4.6062,-4.591,-4.5903,-4.5895,-4.5889,-4.5954,-4.5963,-4.5972,-4.6174,0,0,-4.6,-4.6004,0,0,0,0,0,0,0,0,-4.5842,-4.5855,-4.5942,-4.5938,-4.5932,-4.5969,-4.5999,-4.6099,-4.5912,-4.5917,-4.5893,-4.5885,-4.5968,-4.5976,-4.6003,-4.6177,-4.618,-4.6001,-4.6007,-4.6011,-4.6013,0,0,0,0,0,0,0,-4.5836,-4.5852,-4.6024,-4.5944,-4.5938,-4.5901,-4.5905,-4.6017,-4.5982,-4.5916,-4.5905,-4.5914,-4.5964,-4.5994,-4.6003,-4.6181,-4.6001,-4.6009,-4.6015,-4.6019,-4.6523,-4.653,0,0,0,0,0,0,-4.5838,-4.5848,-4.6022,-4.6026,-4.5868,-4.5911,-4.5916,-4.5965,-4.5981,-4.5976,-4.592,-4.5906,-4.5982,-4.5992,-4.6005,-4.6241,-4.6011,-4.602,-4.6025,-4.6515,-4.6524,-4.6533,0,0,0,0,0,0,-4.5833,-4.5855,-4.602,-4.5934,-4.5952,-4.5923,-4.5979,-4.597,-4.5999,-4.5983,-4.5977,-4.5957,-4.5976,-4.5992,-4.6132,-4.6242,-4.6024,-4.6032,-4.6506,-4.6518,-4.6529,-4.6717,0,0,0,0,0,0,-4.5827,-4.5854,-4.593,-4.5937,-4.5957,-4.6147,-4.5985,-4.5976,-4.6015,-4.5998,-4.6017,-4.6013,-4.5972,-4.6119,-4.6142,-4.625,-4.6039,-4.6496,-4.6511,-4.6525,-4.6701,-4.6734,-4.6762,0,0,0,0,0,-4.5819,-4.5982,-4.5935,-4.5957,-4.6051,-4.6153,-4.6165,-4.6113,-4.6025,-4.6101,-4.6091,-4.6012,-4.6226,-4.6135,-4.6159,-4.6272,-4.6489,-4.6507,-4.6524,-4.6688,-4.6728,-4.6761,0,0,0,0,0,0,-4.599,-4.5982,-4.5929,-4.6099,-4.6128,-4.6127,-4.6221,-4.6158,-4.6213,-4.6195,-4.613,-4.6136,-4.6289,-4.6294,-4.6193,-4.6468,-4.6342,-4.6366,-4.6459,-4.6497,-4.6527,-4.6522,-4.6047,0,0,0,0,0,-4.6047,-4.613,-4.6118,-4.6269,-4.6286,-4.6252,-4.6294,-4.6252,-4.628,-4.6292,-4.6291,-4.6323,-4.6396,-4.6447,-4.6514,-4.6701,-4.6703,-4.6791,-4.6821,-4.6846,-4.6867,-4.6966,-4.7005,-4.659,-4.659,-4.659,0,0,-4.6167,-4.6172,-4.6229,-4.6304,-4.6321,-4.6408,-4.6263,-4.6362,-4.6427,-4.6307,-4.6439,-4.6441,-4.6471,-4.6636,-4.6709,-4.6645,-4.6982,-4.6869,-4.6889,-4.6896,-4.6988,-4.7028,-4.7063,-4.6602,-4.66,-4.6598,0,0,-4.6429,-4.6442,-4.6568,-4.6589,-4.6616,-4.6592,-4.6623,-4.6632,-4.6628,-4.6759,-4.6671,-4.6747,-4.6876,-4.6901,-4.6931,-4.7203,-4.7133,-4.7227,-4.7386,-4.7483,-4.7516,-4.7545,-4.7642,-4.7677,-4.7248,-4.7248,-4.7248,0,-4.6575,-4.6702,-4.6642,-4.6747,-4.6783,-4.6677,-4.6805,-4.6828,-4.6877,-4.6905,-4.6833,-4.6991,-4.7005,-4.7174,-4.724,-4.7267,-4.7301,-4.7224,-4.7516,-4.7544,-4.757,-4.7662,-4.7698,-4.7259,-4.7258,-4.7257,-4.7256,0,-4.688,-4.6969,-4.7069,-4.7117,-4.7163,-4.728,-4.7238,-4.7293,-4.7247,-4.7231,-4.7366,-4.7378,-4.7446,-4.7483,-4.7439,-4.7646,-4.7606,-4.7527,-4.7399,-4.7622,-4.7707,-4.7741,-4.7275,-4.7271,-4.7268,-4.7265,0,0,-4.7252,-4.7265,-4.7302,-4.7323,-4.7345,-4.7414,-4.7525,-4.759,-4.7638,-4.7676,-4.7768,-4.7879,-4.7805,-4.7839,-4.7797,-4.7883,-4.8097,-4.7792,-4.7792,-4.7849,-4.8326,-4.8386,-4.8427,-4.8051,-4.8057,-4.8062,-4.8323,0,-4.7511,-4.77,-4.765,-4.7839,-4.7921,-4.7822,-4.7919,-4.7944,-4.7932,-4.8001,-4.7988,-4.8068,-4.7964,-4.7984,-4.8064,-4.8054,-4.8192,-4.8035,-4.8137,-4.8141,-4.8132,-4.8471,-4.8535,-4.8781,-4.8356,-4.8362,-4.8366,0,-4.7838,-4.7886,-4.8084,-4.8092,-4.8125,-4.8213,-4.8267,-4.8334,-4.8361,-4.8346,-4.8384,-4.8325,-4.8436,-4.8307,-4.8459,-4.8354,-4.8392,-4.8394,-4.8402,-4.841,-4.8267,-4.8489,-4.8858,-4.8895,-4.8417,-4.8413,-4.8409,0,-4.809,-4.8205,-4.8337,-4.8358,-4.8371,-4.8435,-4.8444,-4.8462,-4.8504,-4.8553,-4.8579,-4.8641,-4.8675,-4.8724,-4.8684,-4.8594,-4.8843,-4.8711,-4.8835,-4.8836,-4.8892,-4.8889,-4.9273,-4.8917,-4.8917,-4.8916,-4.8915,0,-4.8384,-4.8509,-4.845,-4.8532,-4.8669,-4.861,-4.8748,-4.8745,-4.8763,-4.8843,-4.8761,-4.8839,-4.878,-4.8853,-4.8822,-4.8953,-4.8969,-4.8961,-4.8951,-4.8968,-4.897,-4.8993,-4.8975,-4.8926,-4.8923,-4.8922,-4.892,0,-4.8688,-4.8654,-4.8792,-4.8793,-4.8796,-4.8897,-4.8897,-4.8974,-4.8955,-4.9058,-4.9079,-4.9051,-4.9132,-4.9096,-4.9182,-4.9161,-4.9329,-4.9297,-4.932,-4.9312,-4.9437,-4.9426,-4.985,-4.9902,-4.9513,-4.9517,-4.952,0,-4.8878,-4.8972,-4.8982,-4.9029,-4.9043,-4.912,-4.9162,-4.9107,-4.9154,-4.9191,-4.9263,-4.9337,-4.9393,-4.9528,-4.9516,-4.9581,-4.955,-4.9694,-4.9559,-4.9573,-4.9552,-4.9547,-4.9556,-4.9721,-4.9726,-4.9729,-4.9732,0,-4.9219,-4.9197,-4.926,-4.9317,-4.9369,-4.9412,-4.9448,-4.9492,-4.9438,-4.9496,-4.9577,-4.962,-4.9707,-4.9782,-4.9839,-4.9849,-4.9783,-4.9775,-4.9806,-4.9825,-4.9834,-4.9831,-4.9394,-4.9765,-4.9762,-4.9759,-4.9758,-4.9756,-4.9472,-4.955,-4.9569,-4.9642,-4.9663,-4.9698,-4.9769,-4.9759,-4.9825,-4.9891,-4.9855,-4.995,-4.9973,-5.0043,-5.0062,-5.0136,-5.008,-5.0127,-5.0138,-5.0151,-5.0167,-4.9823,-5.0147,-5.0146,-5.0145,-5.0144,-5.0143,0,-4.9808,-4.9815,-4.9883,-4.9934,-4.9992,-4.9923,-4.9959,-5.0012,-5.0096,-5.0123,-5.0179,-5.0273,-5.0344,-5.0338,-5.0404,-5.0465,-5.0436,-5.0484,-5.0479,-5.0483,-5.0214,-5.018,-5.0506,-5.0506,-5.0506,-5.0506,-5.0506,-5.0506,-4.999,-5.0119,-5.0099,-5.0237,-5.0243,-5.0335,-5.0361,-5.0394,-5.0415,-5.0522,-5.0581,-5.0575,-5.0589,-5.0655,-5.0719,-5.0715,-5.0743,-5.0803,-5.0788,-5.0537,-5.0502,-5.0467,-5.0434,-5.0809,-5.081,-5.105,-5.1052,-5.1054]},{"header":{"parameterUnit":"m.s-1","parameterCategory":1,"la1":30.2991,"la2":30.254,"lo1":-89.0895,"lo2":-89.0444,"dy":0.0017,"dx":0.0017,"nx":28,"ny":28,"refTime":"2024-05-12T09:00:00:Z","depth":0,"parameterNumber":3,"parameterNumberName":"V-component_of_WINDS"},"data":[0,0,0,0,0,0,0,0,0,0,0,0,0,0,0,0,0,0,0,0,0,0,0,0,0,0,0,0,0,0,0,0,0,0,0,0,0,0,0,0,0,0,0,0,0,0,0,0,0,0,0,0,0,0,0,0,0,0,-2.5124,-2.5124,0,-2.5118,-2.5118,-2.5118,-2.5097,-2.5097,-2.5097,-2.5096,-2.5089,-2.509,-2.509,0,0,0,0,0,0,0,0,0,0,0,0,0,-2.5119,-2.5119,-2.5124,-2.5124,-2.5124,-2.5118,-2.5118,-2.5118,-2.5098,-2.5097,-2.5096,-2.5096,-2.5089,-2.509,-2.509,0,0,0,0,0,0,0,0,0,0,0,0,0,-2.5117,-2.5119,-2.5124,-2.5113,-2.5112,-2.5118,-2.5118,-2.5118,-2.5098,-2.5097,-2.5096,-2.5096,-2.5089,-2.509,-2.509,-2.5105,0,0,-2.5091,-2.5091,0,0,0,0,0,0,0,0,-2.5118,-2.5118,-2.5115,-2.5114,-2.5113,-2.5108,-2.5113,-2.5114,-2.5098,-2.5103,-2.5096,-2.5095,-2.5096,-2.5096,-2.5096,-2.5105,-2.5105,-2.5091,-2.5091,-2.5091,-2.5091,0,0,0,0,0,0,0,-2.5118,-2.5118,-2.5122,-2.5115,-2.5114,-2.5108,-2.5108,-2.5113,-2.5103,-2.5103,-2.5101,-2.5101,-2.5095,-2.5096,-2.5096,-2.5105,-2.5091,-2.5091,-2.5091,-2.5092,-2.5125,-2.5125,0,0,0,0,0,0,-2.5119,-2.5118,-2.5122,-2.5122,-2.5114,-2.5109,-2.5108,-2.511,-2.5103,-2.5102,-2.5101,-2.51,-2.5095,-2.5095,-2.5095,-2.5112,-2.5091,-2.5092,-2.5092,-2.5124,-2.5125,-2.5126,0,0,0,0,0,0,-2.5119,-2.512,-2.5122,-2.5119,-2.5119,-2.511,-2.5112,-2.511,-2.5111,-2.5102,-2.51,-2.5104,-2.5095,-2.5095,-2.5103,-2.5112,-2.5092,-2.5092,-2.5123,-2.5124,-2.5125,-2.5147,0,0,0,0,0,0,-2.5119,-2.512,-2.5126,-2.512,-2.512,-2.513,-2.5113,-2.5111,-2.5111,-2.5109,-2.5104,-2.5102,-2.5094,-2.5102,-2.5103,-2.5112,-2.5092,-2.5122,-2.5124,-2.5125,-2.5145,-2.5149,-2.5151,0,0,0,0,0,-2.5119,-2.5133,-2.5127,-2.5127,-2.5127,-2.5131,-2.5131,-2.5121,-2.5112,-2.5118,-2.5112,-2.5103,-2.5111,-2.5103,-2.5104,-2.5113,-2.5122,-2.5123,-2.5125,-2.5144,-2.5148,-2.5151,0,0,0,0,0,0,-2.5141,-2.5132,-2.5125,-2.5137,-2.5135,-2.5127,-2.5135,-2.5126,-2.5126,-2.5124,-2.5112,-2.5111,-2.5121,-2.5118,-2.511,-2.5127,-2.5115,-2.5116,-2.5129,-2.5132,-2.5135,-2.5136,-2.5093,0,0,0,0,0,-2.5147,-2.5151,-2.5143,-2.5154,-2.5153,-2.5144,-2.5146,-2.5138,-2.5136,-2.5135,-2.513,-2.5127,-2.5129,-2.5131,-2.5132,-2.5145,-2.5143,-2.5151,-2.5154,-2.5157,-2.5158,-2.5164,-2.5167,-2.5131,-2.5131,-2.5131,0,0,-2.516,-2.5156,-2.5159,-2.5159,-2.5156,-2.516,-2.5144,-2.5149,-2.5151,-2.5135,-2.5142,-2.5138,-2.5135,-2.5145,-2.5149,-2.5143,-2.5168,-2.5158,-2.5161,-2.5161,-2.5166,-2.5169,-2.5172,-2.5132,-2.5131,-2.5131,0,0,-2.5186,-2.5183,-2.5192,-2.5189,-2.5185,-2.5179,-2.5181,-2.5175,-2.5171,-2.5178,-2.5166,-2.5168,-2.5172,-2.517,-2.5169,-2.5192,-2.5183,-2.5193,-2.5208,-2.5214,-2.5217,-2.5219,-2.5227,-2.523,-2.5195,-2.5195,-2.5195,0,-2.5202,-2.5208,-2.5197,-2.5203,-2.5203,-2.5188,-2.5196,-2.5194,-2.5191,-2.5191,-2.5184,-2.5187,-2.5184,-2.5193,-2.5198,-2.5198,-2.52,-2.5194,-2.5217,-2.522,-2.5222,-2.5229,-2.5232,-2.5196,-2.5196,-2.5196,-2.5195,0,-2.5228,-2.5232,-2.524,-2.5237,-2.5237,-2.5244,-2.5234,-2.5236,-2.5228,-2.5222,-2.5229,-2.5224,-2.5223,-2.5225,-2.5218,-2.5233,-2.5229,-2.522,-2.5207,-2.5227,-2.5233,-2.5236,-2.5198,-2.5197,-2.5197,-2.5196,0,0,-2.5269,-2.5258,-2.5261,-2.5259,-2.5253,-2.5256,-2.5262,-2.5261,-2.5262,-2.526,-2.5265,-2.5267,-2.5259,-2.5258,-2.525,-2.5255,-2.5273,-2.5245,-2.5245,-2.525,-2.5288,-2.5295,-2.5298,-2.5266,-2.5267,-2.5267,-2.5288,0,-2.5292,-2.5302,-2.5292,-2.5303,-2.5306,-2.5291,-2.5296,-2.5293,-2.5287,-2.5289,-2.5282,-2.5284,-2.5273,-2.5272,-2.5276,-2.527,-2.528,-2.5268,-2.527,-2.527,-2.5271,-2.5302,-2.5309,-2.5329,-2.529,-2.5291,-2.5291,0,-2.5322,-2.5321,-2.5332,-2.5324,-2.5325,-2.533,-2.5328,-2.5329,-2.5325,-2.532,-2.5319,-2.5309,-2.5314,-2.5301,-2.5307,-2.5299,-2.5299,-2.5295,-2.5296,-2.5296,-2.5282,-2.5302,-2.5335,-2.5338,-2.5295,-2.5295,-2.5295,0,-2.5349,-2.5351,-2.5357,-2.5356,-2.5347,-2.5351,-2.5347,-2.5342,-2.5342,-2.534,-2.5339,-2.5338,-2.5337,-2.5336,-2.5326,-2.5318,-2.5333,-2.532,-2.5329,-2.533,-2.5333,-2.5333,-2.5367,-2.5334,-2.5333,-2.5333,-2.5333,0,-2.5377,-2.5385,-2.537,-2.5374,-2.5382,-2.5369,-2.5377,-2.5372,-2.5367,-2.537,-2.5357,-2.5359,-2.5346,-2.5347,-2.5339,-2.5345,-2.5345,-2.5341,-2.5339,-2.5342,-2.5343,-2.5342,-2.534,-2.5334,-2.5334,-2.5334,-2.5334,0,-2.541,-2.54,-2.5406,-2.5397,-2.5394,-2.54,-2.5392,-2.5395,-2.5388,-2.5392,-2.5392,-2.5381,-2.5381,-2.5371,-2.537,-2.5364,-2.5373,-2.5369,-2.5375,-2.5373,-2.5383,-2.5382,-2.5418,-2.5421,-2.5386,-2.5386,-2.5387,0,-2.5428,-2.5433,-2.5424,-2.5425,-2.5422,-2.5423,-2.5423,-2.541,-2.541,-2.5405,-2.5408,-2.5408,-2.5407,-2.5408,-2.54,-2.5398,-2.5393,-2.5406,-2.5393,-2.5396,-2.5393,-2.5393,-2.5393,-2.5409,-2.5409,-2.5409,-2.541,0,-2.5461,-2.5456,-2.5456,-2.5454,-2.5453,-2.5451,-2.5448,-2.5449,-2.5436,-2.5436,-2.5436,-2.5435,-2.5433,-2.5432,-2.5429,-2.5425,-2.5415,-2.5414,-2.5416,-2.5419,-2.5422,-2.542,-2.5382,-2.5413,-2.5413,-2.5412,-2.5412,-2.5412,-2.5487,-2.5491,-2.5485,-2.5484,-2.5481,-2.5478,-2.548,-2.5473,-2.5473,-2.547,-2.5462,-2.5464,-2.5458,-2.5452,-2.5449,-2.5449,-2.5443,-2.5446,-2.5447,-2.5448,-2.545,-2.5422,-2.5449,-2.5449,-2.5449,-2.5449,-2.5448,0,-2.552,-2.5515,-2.5515,-2.551,-2.551,-2.55,-2.5495,-2.5496,-2.5497,-2.5492,-2.5491,-2.5491,-2.5489,-2.5481,-2.5479,-2.5481,-2.5476,-2.548,-2.548,-2.5479,-2.5456,-2.5454,-2.5484,-2.5484,-2.5484,-2.5484,-2.5484,-2.5484,-2.5537,-2.5542,-2.5535,-2.5538,-2.5533,-2.5534,-2.5532,-2.5529,-2.5525,-2.5525,-2.5524,-2.5518,-2.5512,-2.5509,-2.5507,-2.5504,-2.5504,-2.551,-2.5506,-2.5484,-2.5481,-2.5478,-2.5476,-2.551,-2.551,-2.553,-2.553,-2.553]}]]